Nowra Airport

Jump to: basic info | weather | frequencies | runways | comments

Related pages: nearby airports | nearby navaids | notams | map

Basic information (top)

Codes: NOA YSNW
Location: lon -34.948898, lat 150.537003, elev 400 ft / 122 m msl
Status: medium_airport

Weather (top)

Current conditions (rec'd 2014/08/29 21:00Z):

YSNW 292100Z AUTO 19014KT 9999 // OVC025 12/06 Q1025

Airport forecast for Sydney Kingsford Smith International Airport 68nm (126km) NNE (rec'd 2014/08/29 06:30Z):

TAF YSSY 290508Z 2906/3012 18020G30KT 9999 -SHRA FEW020 SCT030 
     FM291200 19020KT 9999 -SHRA SCT025 BKN035 
     FM301000 21015KT 9999 -SHRA SCT025 BKN035

Frequencies (top)

Verify before use: may be inaccurate or out of date.

APP: 123.5 MHz (APP)
ATIS: 28.04 MHz (ATIS)
CLD: 128.35 MHz (CLNC DEL)
CTAF: 118.85 MHz (CTAF)
FSS: 121.2 MHz (MELBOURNE CNTR)
GND: 135.85 MHz (GND)
TWR: 118.85 MHz (TWR)

Runways (top)

03/21: 6,713 x 148 ft (2,046 x 45 m) — paved — lighted

08/26: 6,870 x 148 ft (2,094 x 45 m) — paved — lighted — threshold 26 displaced 298 ft (91 m)

Latest comments (top)

No comments yet for Nowra Airport

More... (top)

See also NOTAMs and nearby airports and navaids, or visit the Nowra Airport page at the main OurAirports website..